Regional Weather Roundup
Issued by NWS

Home | Current Version | Previous Version | Graphics & Text | Print | Product List | Glossary On
Versions: 1 2 3 4 5 6 7 8 9 10 11 12 13 14 15 16 17 18 19 20 21 22 23 24 25 26 27 28 29 30 31 32 33 34 35 36 37 38 39 40 41 42 43 44 45 46 47 48 49 50
000
ASUS43 KMKX 271711
RWRWI

WISCONSIN REGIONAL WEATHER ROUNDUP
NATIONAL WEATHER SERVICE MILWAUKEE/SULLIVAN WI
1100 AM CST FRI FEB 27 2015

NOTE: "FAIR" INDICATES FEW OR NO CLOUDS BELOW 12,000 FEET WITH NO
SIGNIFICANT WEATHER AND/OR OBSTRUCTIONS TO VISIBILITY.

WIZ001-002-006>008-014>016-023>028-271800-
NORTHWEST WISCONSIN

CITY           SKY/WX    TMP DP  RH WIND       PRES   REMARKS
SUPERIOR ARPT  SUNNY      8  -5  56 SW8       30.49F WCI  -5
ASHLAND        SUNNY      9  -8  46 SW13      30.47S WCI  -7
HAYWARD        SUNNY      4  -8  57 SW8       30.46S WCI  -9
SIREN          SUNNY      6  -5  60 SW9       30.52R WCI  -8
CUMBERLAND     SUNNY      5  -6  61 W8        30.49R WCI  -8
RICE LAKE      SUNNY      4  -6  63 W9        30.52S WCI -10
CHETEK         SUNNY      5  -6  58 W6        30.51S WCI  -5
LADYSMITH      SUNNY      7  -7  52 W7        30.49S WCI  -5
EAU CLAIRE     SUNNY      4  -7  60 SW8       30.54S WCI  -9
MENOMONIE      SUNNY      8  -5  56 W7        30.55S WCI  -3
NEW RICHMOND   SUNNY      8  -3  61 SW9       30.53S WCI  -5
OSCEOLA        SUNNY      9  -2  61 W8        30.57S WCI  -3
$$

WIZ003>005-009-010-017-018-271800-
NORTH CENTRAL WISCONSIN

CITY           SKY/WX    TMP DP  RH WIND       PRES   REMARKS
MANITOWISH WTR SUNNY      6  -8  51 W7        30.37F WCI  -6
ARBOR VITAE    SUNNY      9  -6  50 NW8G16    30.38S WCI  -3
WOODRUFF       SUNNY      9  -6  50 NW8G16    30.38S WCI  -3
RHINELANDER    SUNNY      7  -6  55 W13       30.39S WCI  -9
EAGLE RIVER    SUNNY      7 -10  46 W12G17    30.37S WCI  -8
LAND O LAKES   SUNNY     11  -8  43 W6        30.36S WCI   1
PHILLIPS       SUNNY      7  -8  50 W7        30.41S WCI  -5
TOMAHAWK       SUNNY      8  -8  47 W9        30.42S WCI  -5
MEDFORD        SUNNY      5  -9  52 SW9       30.44S WCI  -9
MERRILL        SUNNY      9  -8  45 W5        30.44S WCI   1
$$

WIZ029-030-035-036-043>047-271800-
CENTRAL WISCONSIN

CITY           SKY/WX    TMP DP  RH WIND       PRES   REMARKS
WAUSAU         SUNNY      5  -9  52 W13       30.47R WCI -12
MOSINEE        SUNNY      7  -8  51 W12       30.48R WCI  -9
MARSHFIELD     SUNNY      5  -8  55 W8        30.49R WCI  -8
STEVENS POINT  SUNNY      6 -10  47 W12G17    30.50S WCI -10
WAUPACA        SUNNY     14  -7  38 W12       30.52S WCI   1
WAUTOMA        SUNNY     12  -7  42 SW13      30.54S WCI  -3
WISC RAPIDS    SUNNY      8  -9  45 W10       30.53R WCI  -6
CAMP DOUGLAS   SUNNY     10  -6  48 W8        30.55S WCI  -1
$$

WIZ011>013-019>022-031-037>040-048>050-271800-
NORTHEAST WISCONSIN

CITY           SKY/WX    TMP DP  RH WIND       PRES   REMARKS
ANTIGO         SUNNY      7  -7  52 W9        30.41S WCI  -7
SHAWANO        SUNNY     13  -6  42 SW10      30.50S WCI   0
OCONTO         SUNNY     12  -4  47 W15       30.50S WCI  -4
STURGEON BAY   SUNNY      9  -6  52 W13       30.51R WCI  -7
GREEN BAY      SUNNY     11  -4  51 SW10      30.52S WCI  -3
MANITOWOC      SUNNY     15  -3  44 W17       30.54R WCI  -1
APPLETON       SUNNY     10  -6  48 W10       30.51S WCI  -3
CLINTONVILLE   SUNNY     12  -6  44 W12       30.50F WCI  -2
OSHKOSH        SUNNY     10  -5  50 W9G17     30.53S WCI  -3
$$

WIZ032>034-041-042-053>061-271800-
SOUTHWEST WISCONSIN

CITY           SKY/WX    TMP DP  RH WIND       PRES   REMARKS
LA CROSSE      SUNNY      5  -6  60 S7        30.61R WCI  -7
SPARTA         SUNNY      9  -7  48 W8        30.57S WCI  -3
VIROQUA        SUNNY      7  -6  56 W3        30.53R
BOSCOBEL       SUNNY      7  -6  55 S5        30.62S WCI  -2
PRAIRIE DU CHI SUNNY      2 -10  55 CALM      30.63S
PLATTEVILLE    SUNNY      1  -8  66 CALM      30.59R
$$

WIZ056-057-062-063-064-067-068-271800-
SOUTH CENTRAL WISCONSIN

CITY           SKY/WX    TMP DP  RH WIND       PRES   REMARKS
REEDSBURG      SUNNY      9  -5  53 SW7       30.56S WCI  -2
BARABOO/DELLS  SUNNY      9  -7  48 SW7       30.55S WCI  -2
LONE ROCK      SUNNY      7  -7  52 W6        30.61R WCI  -3
MINERAL POINT  SUNNY      9  -6  52 W5        30.56S WCI   0
MADISON        SUNNY     10  -8  44 W6        30.57R WCI   0
MIDDLETON      SUNNY     13  -8  38 W8        30.57S WCI   2
WATERTOWN      SUNNY     11  -3  52 CALM      30.57R
MONROE         SUNNY     10  -2  56 W6        30.57R WCI   1
JANESVILLE     SUNNY      9  -6  52 W5        30.59R WCI   0
$$

WIZ051-052-058>065-066-070>072-271800-
SOUTHEAST WISCONSIN

CITY           SKY/WX    TMP DP  RH WIND       PRES   REMARKS
MILWAUKEE      SUNNY     14  -7  38 W6        30.57R WCI   5
WAUKESHA       SUNNY      9  -6  52 W6        30.56R WCI  -1
MILWAUKEE/TIMM SUNNY     14  -9  34 W9        30.57R WCI   2
RACINE         SUNNY     11  -5  48 W7        30.60R WCI   0
BURLINGTON     SUNNY     11  -6  47 W7        30.58R WCI   0
KENOSHA        SUNNY     10  -4  53 W10       30.58R WCI  -4
FOND DU LAC    SUNNY     11  -6  46 W10       30.55R WCI  -3
SHEBOYGAN      SUNNY     12  -5  46 W14       30.54R WCI  -3
WEST BEND      SUNNY     12  -8  40 W9        30.55R WCI   0
JUNEAU         SUNNY     10  -5  51 W8        30.56S WCI  -2
$$

LSZ147-162-271800-
LAKE SUPERIOR

STATION/POSITION TIME  TEMP    WIND        PRES    WAVE
                       AIR SEA DIR/SP/G            HT/PER
                 (UTC) (F)     (DEG/KT/KT) (MB)    (FT/S)
DEVILS ISLAND    1700    5     240/ 17/ 20 1033.2R
PORT WING        1600    4     220/  6/ 10 1032.5
SAXON HARBOR     1600    6      CALM  /  7 1031.8F
$$

LMZ867-665-643>646-271800-
LAKE MICHIGAN

STATION/POSITION TIME  TEMP    WIND        PRES    WAVE
                       AIR SEA DIR/SP/G            HT/PER
                 (UTC) (F)     (DEG/KT/KT) (MB)    (FT/S)
NORTHPORT PIER   1629   10     280/  4/ 12 1032.2S
KEWAUNEE LAKESHO 1600    9     270/  8/ 11 1032.1F
SHEBOYGAN LAKESH 1700   11     280/ 12/ 15 1036.3R
PORT WASHINGTON  1640   15     270/  9/ 13 1035.6S
MILWAUKEE LAKESH 1600   12     290/  6/  9   N/A
KENOSHA   LAKESH 1700   10     260/  9/ 10 1035.9R
$$

TC  - TEMPERATURE IN CELSIUS
VSB - VISIBILITY IN STATUTE MILES
WCI - WIND CHILL INDEX
HX  - HEAT INDEX




USA.gov is the U.S. government's official web portal to all federal, state and local government web resources and services.